EW6133 Weather Reports


time (UTC)temp
C
wind
direction
speed
KPH
gust
KPH
rain 1hr
cm
rain 24hr
cm
rain mn
cm
humidity
%
barometer
mb
20260510091205 11 14 3.2 8.0 0.00 0.00 0.00 79 1017.4
20260510090659 11 315 1.6 6.4 0.00 0.00 0.00 79 1017.4
20260510090153 11 165 1.6 8.0 0.00 0.00 0.00 79 1017.4
20260510085649 11 338 1.6 8.0 0.00 0.00 0.00 79 1017.5
20260510085142 11 117 3.2 8.0 0.00 0.00 0.00 79 1017.5
20260510084645 11 274 1.6 8.0 0.00 0.00 0.00 79 1017.5
20260510084143 11 22 1.6 17.7 0.00 0.00 0.00 80 1017.5
20260510083923 11 11 1.6 17.7 0.00 0.00 0.00 80 1017.5
20260510083143 11 25 1.6 9.7 0.00 0.00 0.00 80 1017.5
20260510082641 11 234 3.2 9.7 0.00 0.00 0.00 79 1017.5
20260510082143 11 290 1.6 9.7 0.00 0.00 0.00 80 1017.5
20260510081640 11 246 1.6 9.7 0.00 0.00 0.00 81 1017.6
20260510081141 10 269 1.6 9.7 0.00 0.00 0.00 82 1017.6
20260510080639 10 290 1.6 8.0 0.00 0.00 0.00 81 1017.6
20260510080140 10 296 1.6 8.0 0.00 0.00 0.00 81 1017.6
20260510075920 10 283 3.2 8.0 0.00 0.00 0.00 82 1017.6
20260510075141 10 48 3.2 8.0 0.00 0.00 0.00 82 1017.6
20260510074643 10 223 3.2 8.0 0.00 0.00 0.00 82 1017.5
20260510074139 10 273 1.6 8.0 0.00 0.00 0.00 83 1017.6
20260510073634 10 263 1.6 8.0 0.00 0.00 0.00 83 1017.6
20260510073135 10 257 1.6 8.0 0.00 0.00 0.00 83 1017.6
20260510072634 10 39 3.2 12.9 0.00 0.00 0.00 83 1017.6
20260510072415 10 52 1.6 12.9 0.00 0.00 0.00 84 1017.6
20260510071916 10 298 1.6 8.0 0.00 0.00 0.00 84 1017.6
20260510071135 10 59 3.2 8.0 0.00 0.00 0.00 85 1017.5
20260510070634 10 355 3.2 14.5 0.00 0.00 0.00 85 1017.5
20260510070135 10 0 3.2 19.3 0.00 0.00 0.00 85 1017.4
20260510065701 10 273 1.6 9.7 0.00 0.00 0.00 86 1017.4
20260510065652 10 26 1.6 19.3 0.00 0.00 0.00 86 1017.4
20260510064634 10 281 3.2 9.7 0.00 0.00 0.00 87 1017.2
20260510064419 10 276 3.2 9.7 0.00 0.00 0.00 87 1017.2
20260510063634 10 26 1.6 6.4 0.00 0.00 0.00 87 1017.2
20260510063134 9 16 1.6 6.4 0.00 0.00 0.00 87 1017.2
20260510062635 9 332 1.6 6.4 0.00 0.00 0.00 88 1017.2
20260510062133 9 290 1.6 6.4 0.00 0.00 0.00 88 1017.2
20260510061634 9 315 1.6 6.4 0.00 0.00 0.00 88 1017.2
20260510061133 9 342 1.6 4.8 0.00 0.00 0.00 88 1017.2
20260510060635 9 32 1.6 4.8 0.00 0.00 0.00 88 1017.2
20260510060417 9 250 1.6 6.4 0.00 0.00 0.00 88 1017.1
20260510055633 9 253 1.6 6.4 0.00 0.00 0.00 89 1017.2
20260510055132 9 262 1.6 6.4 0.00 0.00 0.00 89 1017.1
20260510054631 9 254 1.6 8.0 0.00 0.00 0.00 89 1017.2
20260510054133 9 250 1.6 8.0 0.00 0.00 0.00 89 1017.1
20260510053913 9 355 1.6 6.4 0.00 0.00 0.00 90 1017.1
20260510053132 8 235 1.6 6.4 0.00 0.00 0.00 90 1017.1
20260510052635 8 265 1.6 6.4 0.00 0.00 0.00 90 1017.2
20260510052134 8 284 1.6 6.4 0.00 0.00 0.00 90 1017.2
20260510051631 8 61 1.6 8.0 0.00 0.00 0.00 91 1017.2
20260510051130 8 327 1.6 8.0 0.00 0.00 0.00 91 1017.2
20260510050630 8 355 1.6 8.0 0.00 0.00 0.00 91 1017.2
20260510050411 8 74 0.0 8.0 0.00 0.00 0.00 91 1017.2
20260510045618 8 340 0.0 3.2 0.00 0.00 0.00 91 1017.2
20260510045112 8 194 1.6 6.4 0.00 0.00 0.00 91 1017.2
20260510044613 8 198 1.6 6.4 0.00 0.00 0.00 91 1017.2
20260510044113 8 190 0.0 8.0 0.00 0.00 0.00 91 1017.2
20260510043613 8 307 1.6 8.0 0.00 0.00 0.00 91 1017.3
20260510043113 8 245 1.6 6.4 0.00 0.00 0.00 91 1017.2
20260510042610 8 217 1.6 6.4 0.00 0.00 0.00 91 1017.2
20260510042109 8 16 1.6 3.2 0.00 0.00 0.00 91 1017.3
20260510041605 8 219 0.0 4.8 0.00 0.00 0.00 91 1017.3
20260510041104 8 26 1.6 9.7 0.00 0.00 0.00 91 1017.2
20260510040605 8 24 1.6 9.7 0.00 0.00 0.00 91 1017.2
20260510035634 8 222 1.6 4.8 0.00 0.00 0.00 90 1017.3
20260510035623 8 202 1.6 11.3 0.00 0.00 0.00 91 1017.2
20260510034603 8 59 1.6 4.8 0.00 0.00 0.00 90 1017.3
20260510034105 8 224 1.6 4.8 0.00 0.00 0.00 90 1017.2
20260510033603 8 19 1.6 3.2 0.00 0.00 0.00 90 1017.3
20260510033102 8 263 1.6 4.8 0.00 0.00 0.00 90 1017.3
20260510032844 8 19 1.6 4.8 0.00 0.00 0.00 90 1017.4
20260510032103 8 277 1.6 6.4 0.00 0.00 0.00 90 1017.5
20260510031603 8 180 1.6 6.4 0.00 0.00 0.00 90 1017.4
20260510031105 8 74 0.0 4.8 0.00 0.00 0.00 90 1017.5
20260510030603 8 279 0.0 3.2 0.00 0.00 0.00 90 1017.5
20260510030105 8 78 1.6 6.4 0.00 0.00 0.00 90 1017.5
20260510025602 8 182 1.6 6.4 0.00 0.00 0.00 90 1017.6
20260510025103 8 0 1.6 6.4 0.00 0.00 0.00 89 1017.6
20260510024603 8 355 1.6 6.4 0.00 0.00 0.00 89 1017.6
20260510024102 8 79 1.6 6.4 0.00 0.00 0.00 89 1017.6
20260510023602 8 19 1.6 6.4 0.00 0.00 0.00 89 1017.6
20260510023342 8 348 0.0 4.8 0.00 0.00 0.00 89 1017.7
20260510022602 8 47 0.0 4.8 0.00 0.00 0.00 89 1017.7
20260510022123 8 211 1.6 4.8 0.00 0.00 0.00 89 1017.6
20260510022117 8 192 0.0 4.8 0.00 0.00 0.00 89 1017.7
20260510021338 8 322 1.6 4.8 0.00 0.00 0.00 89 1017.6
20260510020605 8 346 1.6 6.4 0.00 0.00 0.00 89 1017.8
20260510020343 8 340 1.6 6.4 0.00 0.00 0.00 90 1017.8
20260510015842 8 61 0.0 4.8 0.00 0.00 0.00 90 1017.8
20260510015344 8 242 0.0 4.8 0.00 0.00 0.00 90 1017.8
20260510014603 8 113 0.0 3.2 0.00 0.00 0.00 90 1017.8
20260510014105 8 275 0.0 4.8 0.00 0.00 0.00 90 1017.7
20260510013603 8 289 0.0 4.8 0.00 0.00 0.00 90 1017.7
20260510013102 8 265 0.0 3.2 0.00 0.00 0.00 90 1017.6
20260510012602 8 266 0.0 3.2 0.00 0.00 0.00 90 1017.7
20260510012104 8 259 0.0 6.4 0.00 0.00 0.00 90 1017.6
20260510011602 8 208 0.0 6.4 0.00 0.00 0.00 89 1017.5
20260510011103 8 11 0.0 3.2 0.00 0.00 0.00 89 1017.5
20260510010824 9 297 0.0 3.2 0.00 0.00 0.00 89 1017.4
20260510005603 9 312 0.0 3.2 0.00 0.00 0.00 89 1017.6
20260510005103 9 326 0.0 3.2 0.00 0.00 0.00 89 1017.7
20260510004604 9 70 0.0 3.2 0.00 0.00 0.00 89 1017.8
20260510004105 9 65 0.0 3.2 0.00 0.00 0.00 88 1017.7
20260510003603 9 215 0.0 3.2 0.00 0.00 0.00 88 1017.8
20260510003103 9 348 0.0 3.2 0.00 0.00 0.00 88 1017.8
20260510002606 9 342 0.0 3.2 0.00 0.00 0.00 87 1017.7
20260510002103 9 220 0.0 3.2 0.00 0.00 0.00 87 1017.7
20260510001656 9 236 0.0 3.2 0.00 0.00 0.00 85 1017.8
20260510001642 9 78 0.0 4.8 0.00 0.00 0.00 86 1017.8
20260510001123 9 221 1.6 4.8 0.00 0.00 0.00 86 1017.8
20260509235601 10 127 0.0 3.2 0.00 0.00 0.00 83 1017.9
20260509235101 10 263 0.0 3.2 0.00 0.00 0.00 82 1017.9
20260509234600 10 309 0.0 4.8 0.00 0.00 0.00 81 1017.9
20260509234059 10 221 0.0 4.8 0.00 0.00 0.00 79 1017.9
20260509233559 10 245 0.0 3.2 0.00 0.00 0.00 77 1017.9
20260509233058 10 293 0.0 3.2 0.00 0.00 0.00 74 1017.8
20260509232554 10 176 0.0 4.8 0.00 0.00 0.00 72 1017.8
20260509232055 10 175 0.0 4.8 0.00 0.00 0.00 70 1017.8
20260509231554 10 226 0.0 3.2 0.00 0.00 0.00 69 1017.9
20260509231056 10 350 0.0 3.2 0.00 0.00 0.00 69 1017.9
20260509230556 10 312 0.0 3.2 0.00 0.00 0.00 69 1017.9
20260509230330 10 171 0.0 3.2 0.00 0.00 0.00 67 1017.8
20260509225823 11 200 0.0 3.2 0.00 0.00 0.00 66 1017.8
20260509225045 11 288 0.0 3.2 0.00 0.00 0.00 66 1017.7
20260509224545 11 155 0.0 3.2 0.00 0.00 0.00 66 1017.8
20260509224045 11 48 0.0 3.2 0.00 0.00 0.00 66 1017.8
20260509223544 11 319 0.0 1.6 0.00 0.00 0.00 66 1017.8
20260509223106 11 319 0.0 3.2 0.00 0.00 0.00 65 1017.9
20260509223058 11 319 0.0 1.6 0.00 0.00 0.00 66 1017.9
20260509222041 11 319 0.0 3.2 0.00 0.00 0.00 65 1017.9
20260509221545 11 300 0.0 1.6 0.00 0.00 0.00 65 1017.9
20260509221317 11 300 0.0 1.6 0.00 0.00 0.00 65 1017.8
20260509220819 11 300 0.0 3.2 0.00 0.00 0.00 65 1017.8
20260509220039 11 300 0.0 3.2 0.00 0.00 0.00 64 1017.6
20260509215539 11 11 0.0 3.2 0.00 0.00 0.00 63 1017.4
20260509215039 12 22 0.0 1.6 0.00 0.00 0.00 63 1017.3
20260509214539 12 22 0.0 1.6 0.00 0.00 0.00 62 1017.3
20260509214040 12 22 0.0 1.6 0.00 0.00 0.00 62 1017.3
20260509213816 12 22 0.0 0.0 0.00 0.00 0.00 62 1017.3
20260509213039 12 22 0.0 1.6 0.00 0.00 0.00 61 1017.3
20260509212538 12 22 0.0 1.6 0.00 0.00 0.00 60 1017.2
20260509212039 12 22 0.0 1.6 0.00 0.00 0.00 60 1017.2
20260509211539 12 0 0.0 0.0 0.00 0.00 0.00 60 1017.2
20260509211039 12 0 0.0 1.6 0.00 0.00 0.00 60 1017.2
20260509210538 12 0 0.0 1.6 0.00 0.00 0.00 59 1017.1
20260509210039 12 0 0.0 1.6 0.00 0.00 0.00 59 1017.1
20260509205537 12 0 0.0 1.6 0.00 0.00 0.00 58 1017.1
20260509205035 12 0 0.0 1.6 0.00 0.00 0.00 58 1017.1
20260509204532 13 0 0.0 1.6 0.00 0.00 0.00 58 1017.1
20260509204032 13 0 0.0 3.2 0.00 0.00 0.00 58 1017.1
20260509203532 13 0 0.0 3.2 0.00 0.00 0.00 58 1017.0
20260509203032 13 0 0.0 1.6 0.00 0.00 0.00 58 1016.9
20260509202532 13 0 0.0 0.0 0.00 0.00 0.00 58 1016.8
20260509202031 13 0 0.0 0.0 0.00 0.00 0.00 58 1016.8
20260509201531 13 0 0.0 0.0 0.00 0.00 0.00 57 1016.8
20260509201034 13 0 0.0 0.0 0.00 0.00 0.00 56 1016.8
20260509200528 14 0 0.0 1.6 0.00 0.00 0.00 56 1016.7
20260509200024 14 0 0.0 3.2 0.00 0.00 0.00 55 1016.6
20260509195518 14 0 0.0 3.2 0.00 0.00 0.00 54 1016.6
20260509195011 14 355 0.0 3.2 0.00 0.00 0.00 53 1016.6
20260509194512 15 0 0.0 1.6 0.00 0.00 0.00 53 1016.6
20260509194011 15 0 0.0 3.2 0.00 0.00 0.00 52 1016.6
20260509193507 15 0 0.0 4.8 0.00 0.00 0.00 52 1016.5
20260509193003 15 5 0.0 4.8 0.00 0.00 0.00 51 1016.5
20260509192503 15 61 0.0 3.2 0.00 0.00 0.00 51 1016.5
20260509192002 15 73 0.0 3.2 0.00 0.00 0.00 50 1016.5
20260509191746 16 56 0.0 3.2 0.00 0.00 0.00 50 1016.5
20260509191003 16 338 0.0 4.8 0.00 0.00 0.00 49 1016.4
20260509190505 16 107 0.0 4.8 0.00 0.00 0.00 49 1016.3
20260509190006 16 128 1.6 6.4 0.00 0.00 0.00 48 1016.2
20260509185503 16 350 1.6 8.0 0.00 0.00 0.00 48 1016.2
20260509185004 16 123 1.6 8.0 0.00 0.00 0.00 48 1016.1
20260509184503 16 47 1.6 6.4 0.00 0.00 0.00 48 1016.2
20260509184002 16 139 1.6 6.4 0.00 0.00 0.00 48 1016.1
20260509183503 16 196 1.6 6.4 0.00 0.00 0.00 48 1016.0
20260509183246 16 90 1.6 4.8 0.00 0.00 0.00 48 1015.9
20260509182504 17 49 0.0 6.4 0.00 0.00 0.00 48 1015.9
20260509181959 17 330 1.6 6.4 0.00 0.00 0.00 48 1015.9
20260509181454 17 197 1.6 4.8 0.00 0.00 0.00 47 1015.8
20260509180946 17 333 1.6 9.7 0.00 0.00 0.00 47 1015.8
20260509180442 17 147 1.6 9.7 0.00 0.00 0.00 47 1015.8
20260509175933 17 137 1.6 6.4 0.00 0.00 0.00 47 1015.7
20260509175431 17 355 1.6 6.4 0.00 0.00 0.00 48 1015.7
20260509174931 17 81 1.6 8.0 0.00 0.00 0.00 47 1015.7
20260509174432 17 32 1.6 8.0 0.00 0.00 0.00 46 1015.7
20260509173930 18 151 1.6 12.9 0.00 0.00 0.00 46 1015.8
20260509173430 18 137 1.6 12.9 0.00 0.00 0.00 46 1015.7
20260509172930 18 48 1.6 9.7 0.00 0.00 0.00 47 1015.7
20260509172433 18 22 3.2 8.0 0.00 0.00 0.00 46 1015.7
20260509171931 18 143 3.2 11.3 0.00 0.00 0.00 46 1015.7
20260509171711 18 86 1.6 11.3 0.00 0.00 0.00 46 1015.8
20260509171215 18 211 1.6 8.0 0.00 0.00 0.00 47 1015.8
20260509170433 18 30 1.6 9.7 0.00 0.00 0.00 46 1015.9
20260509165933 18 178 1.6 9.7 0.00 0.00 0.00 47 1015.9
20260509165432 18 336 1.6 8.0 0.00 0.00 0.00 47 1015.9
20260509165209 18 197 1.6 4.8 0.00 0.00 0.00 46 1015.8
20260509164714 18 0 1.6 4.8 0.00 0.00 0.00 47 1015.8
20260509163932 18 309 1.6 4.8 0.00 0.00 0.00 47 1015.8
20260509163714 18 324 1.6 8.0 0.00 0.00 0.00 46 1015.8
20260509163211 19 23 1.6 8.0 0.00 0.00 0.00 45 1015.9
20260509162431 19 59 1.6 6.4 0.00 0.00 0.00 45 1015.9
20260509161931 19 232 1.6 6.4 0.00 0.00 0.00 45 1015.9
20260509161435 19 259 1.6 6.4 0.00 0.00 0.00 44 1015.9
20260509161210 20 231 1.6 11.3 0.00 0.00 0.00 44 1015.9
20260509160430 20 91 1.6 11.3 0.00 0.00 0.00 44 1015.9
20260509155930 20 327 1.6 9.7 0.00 0.00 0.00 42 1015.8
20260509155710 20 287 1.6 9.7 0.00 0.00 0.00 42 1015.8
20260509154928 20 212 0.0 6.4 0.00 0.00 0.00 42 1015.8
20260509154452 20 136 1.6 6.4 0.00 0.00 0.00 41 1015.8
20260509154443 20 24 1.6 6.4 0.00 0.00 0.00 42 1015.8
20260509153447 21 63 1.6 6.4 0.00 0.00 0.00 40 1015.7
20260509153439 20 316 1.6 6.4 0.00 0.00 0.00 41 1015.9
20260509152424 21 98 1.6 6.4 0.00 0.00 0.00 41 1015.8
20260509151922 21 81 1.6 6.4 0.00 0.00 0.00 40 1015.8
20260509151423 21 80 1.6 4.8 0.00 0.00 0.00 38 1015.7
20260509150922 21 139 1.6 4.8 0.00 0.00 0.00 39 1015.7
20260509150421 21 109 1.6 6.4 0.00 0.00 0.00 40 1015.7
20260509145921 21 9 1.6 6.4 0.00 0.00 0.00 39 1015.5
20260509145701 21 217 0.0 4.8 0.00 0.00 0.00 39 1015.5
20260509144919 22 331 1.6 12.9 0.00 0.00 0.00 38 1015.4
20260509144418 22 284 1.6 12.9 0.00 0.00 0.00 38 1015.5
20260509143915 22 172 1.6 9.7 0.00 0.00 0.00 39 1015.4
20260509143656 22 63 1.6 4.8 0.00 0.00 0.00 39 1015.4
20260509142915 22 140 1.6 6.4 0.00 0.00 0.00 38 1015.4
20260509142415 22 228 1.6 9.7 0.00 0.00 0.00 39 1015.4
20260509141916 22 5 1.6 9.7 0.00 0.00 0.00 39 1015.4
20260509141414 22 82 1.6 8.0 0.00 0.00 0.00 38 1015.4
20260509140916 22 215 1.6 8.0 0.00 0.00 0.00 39 1015.6
20260509140414 22 295 1.6 6.4 0.00 0.00 0.00 39 1015.7
20260509135912 22 321 1.6 8.0 0.00 0.00 0.00 40 1015.7
20260509135411 22 306 1.6 8.0 0.00 0.00 0.00 40 1015.8
20260509134938 22 286 1.6 6.4 0.00 0.00 0.00 41 1015.8
20260509134929 22 167 1.6 6.4 0.00 0.00 0.00 40 1015.8
20260509133911 21 269 3.2 11.3 0.00 0.00 0.00 41 1016.0
20260509133652 21 238 3.2 11.3 0.00 0.00 0.00 41 1016.0
20260509132910 21 88 3.2 6.4 0.00 0.00 0.00 40 1016.0
20260509132411 21 40 1.6 6.4 0.00 0.00 0.00 39 1016.0
20260509131912 22 46 1.6 6.4 0.00 0.00 0.00 39 1016.0
20260509131412 22 261 1.6 8.0 0.00 0.00 0.00 39 1016.0
20260509130913 22 286 1.6 9.7 0.00 0.00 0.00 41 1016.1
20260509130410 22 277 1.6 11.3 0.00 0.00 0.00 39 1016.1
20260509125911 22 301 1.6 11.3 0.00 0.00 0.00 41 1016.3
20260509125409 22 51 1.6 9.7 0.00 0.00 0.00 42 1016.3
20260509125148 21 345 1.6 8.0 0.00 0.00 0.00 42 1016.3
20260509124408 21 28 1.6 6.4 0.00 0.00 0.00 42 1016.3
20260509123909 21 203 1.6 8.0 0.00 0.00 0.00 43 1016.4
20260509123410 21 135 1.6 8.0 0.00 0.00 0.00 43 1016.5
20260509122904 21 162 1.6 6.4 0.00 0.00 0.00 42 1016.5
20260509122404 21 165 1.6 6.4 0.00 0.00 0.00 43 1016.6
20260509121905 21 255 1.6 6.4 0.00 0.00 0.00 43 1016.5
20260509121403 21 16 1.6 9.7 0.00 0.00 0.00 43 1016.6
20260509120904 21 165 1.6 9.7 0.00 0.00 0.00 43 1016.6
20260509120403 21 296 1.6 6.4 0.00 0.00 0.00 44 1016.6
20260509115902 21 5 1.6 6.4 0.00 0.00 0.00 45 1016.7
20260509115647 20 5 1.6 11.3 0.00 0.00 0.00 45 1016.8
20260509114902 20 143 3.2 11.3 0.00 0.00 0.00 44 1016.9
20260509114403 20 205 3.2 12.9 0.00 0.00 0.00 44 1016.9
20260509113904 20 228 1.6 12.9 0.00 0.00 0.00 45 1017.1
20260509113404 20 40 1.6 6.4 0.00 0.00 0.00 45 1017.1
20260509112903 20 121 1.6 8.0 0.00 0.00 0.00 44 1017.0
20260509112402 20 101 1.6 11.3 0.00 0.00 0.00 43 1017.2
20260509111902 20 9 1.6 11.3 0.00 0.00 0.00 44 1017.3
20260509111403 20 277 1.6 8.0 0.00 0.00 0.00 45 1017.2
20260509111146 20 88 1.6 8.0 0.00 0.00 0.00 45 1017.3
20260509110402 20 252 1.6 8.0 0.00 0.00 0.00 45 1017.3
20260509105906 20 32 1.6 6.4 0.00 0.00 0.00 46 1017.3
20260509105402 20 179 1.6 6.4 0.00 0.00 0.00 46 1017.4
20260509104903 20 144 1.6 8.0 0.00 0.00 0.00 45 1017.5
20260509104402 20 49 1.6 8.0 0.00 0.00 0.00 45 1017.5
20260509103904 20 138 1.6 8.0 0.00 0.00 0.00 46 1017.6
20260509103402 20 28 1.6 9.7 0.00 0.00 0.00 46 1017.6
20260509102903 20 114 1.6 9.7 0.00 0.00 0.00 45 1017.8
20260509102404 20 20 1.6 9.7 0.00 0.00 0.00 46 1017.6
20260509101902 20 69 1.6 9.7 0.00 0.00 0.00 46 1017.7
20260509101403 19 119 1.6 6.4 0.00 0.00 0.00 48 1017.8
20260509100902 19 21 3.2 11.3 0.00 0.00 0.00 48 1017.8
20260509100403 18 114 1.6 11.3 0.00 0.00 0.00 48 1017.8
20260509095901 18 19 1.6 11.3 0.00 0.00 0.00 48 1017.7
20260509095404 18 214 1.6 11.3 0.00 0.00 0.00 48 1017.7
20260509094902 18 78 1.6 4.8 0.00 0.00 0.00 48 1017.7
20260509094404 18 276 1.6 9.7 0.00 0.00 0.00 49 1017.7
20260509093905 18 164 1.6 9.7 0.00 0.00 0.00 48 1017.8
20260509093403 18 258 1.6 4.8 0.00 0.00 0.00 51 1017.8
20260509092901 18 169 3.2 8.0 0.00 0.00 0.00 51 1017.9
20260509092402 18 340 1.6 8.0 0.00 0.00 0.00 50 1017.8
20260509091902 18 252 1.6 9.7 0.00 0.00 0.00 51 1017.8